Location: Linz
(48.3300°N, 14.3000°E)
Time: 04:21:39
(UTC+01:00)

YUBILEINY - Pass Details

Date: 01 March 2019
Orbit: 1479 x 1508 km, 82.5° (Epoch: 20 March)

Event Time Altitude Azimuth Distance (km) Brightness Sun altitude
Exits shadow 03:39:52 12° 173° (S) 3,424 ? -30.9°
Maximum altitude 03:47:53 68° 93° (E) 1,579 ? -29.7°
Drops below altitude 10° 03:56:32 10° 14° (NNE) 3,644 ? -28.4°
Sets 03:59:26 0° 12° (NNE) 4,631 ? -27.9°
